Time,TemperatureF,DewpointF,PressureIn,WindDirection,WindDirectionDegrees,WindSpeedMPH,WindSpeedGustMPH,Humidity,HourlyPrecipIn,Conditions,Clouds,dailyrainin,SolarRadiationWatts/m^2,SoftwareType,DateUTC
2014-03-10 00:02:00,57.0,42.4,30.11,WNW,288,0.0,0.0,58,0.00,BKN,,0.00,0.0,WeatherDisplay:10.37,2014-03-10 07:02:00,
2014-03-10 00:07:00,56.9,42.3,30.11,WNW,288,0.0,0.0,58,0.00,BKN,,0.00,0.0,WeatherDisplay:10.37,2014-03-10 07:07:00,
2014-03-10 00:12:00,56.7,41.6,30.11,WNW,285,1.0,2.3,57,0.00,BKN,,0.00,0.0,WeatherDisplay:10.37,2014-03-10 07:12:00,
2014-03-10 00:17:00,56.7,41.6,30.11,West,277,0.0,0.0,57,0.00,BKN,,0.00,0.0,WeatherDisplay:10.37,2014-03-10 07:17:00,
2014-03-10 00:22:00,56.9,41.4,30.10,West,277,0.0,0.0,56,0.00,BKN,,0.00,0.0,WeatherDisplay:10.37,2014-03-10 07:22:00,
2014-03-10 00:27:00,56.9,41.8,30.10,West,277,0.0,0.0,57,0.00,BKN,,0.00,0.0,WeatherDisplay:10.37,2014-03-10 07:27:00,
2014-03-10 00:32:00,56.9,41.8,30.10,West,277,0.0,0.0,57,0.00,BKN,,0.00,0.0,WeatherDisplay:10.37,2014-03-10 07:32:00,
2014-03-10 00:37:00,56.7,42.1,30.10,West,277,0.0,0.0,58,0.00,BKN,,0.00,0.0,WeatherDisplay:10.37,2014-03-10 07:37:00,
2014-03-10 00:42:00,56.7,42.1,30.10,West,277,0.0,0.0,58,0.00,BKN,,0.00,0.0,WeatherDisplay:10.37,2014-03-10 07:42:00,
2014-03-10 00:47:00,56.6,42.0,30.10,West,277,0.0,0.0,58,0.00,BKN,,0.00,0.0,WeatherDisplay:10.37,2014-03-10 07:47:00,
2014-03-10 00:52:00,56.5,41.9,30.10,West,277,0.0,0.0,58,0.00,BKN,,0.00,0.0,WeatherDisplay:10.37,2014-03-10 07:52:00,
2014-03-10 00:57:00,56.3,42.1,30.10,West,277,0.0,0.0,59,0.00,BKN,,0.00,0.0,WeatherDisplay:10.37,2014-03-10 07:57:00,
2014-03-10 01:02:00,56.3,42.6,30.10,West,277,0.0,0.0,60,0.00,BKN,,0.00,0.0,WeatherDisplay:10.37,2014-03-10 08:02:00,
2014-03-10 01:07:00,56.2,42.9,30.10,West,277,0.6,2.3,61,0.00,BKN,,0.00,0.0,WeatherDisplay:10.37,2014-03-10 08:07:00,
2014-03-10 01:12:00,56.0,42.7,30.10,West,277,0.0,0.0,61,0.00,BKN,,0.00,0.0,WeatherDisplay:10.37,2014-03-10 08:12:00,
2014-03-10 01:17:00,55.9,42.6,30.10,West,277,0.0,0.0,61,0.00,CLR,,0.00,0.0,WeatherDisplay:10.37,2014-03-10 08:17:00,
2014-03-10 01:22:00,55.7,42.5,30.10,West,277,0.0,0.0,61,0.00,CLR,,0.00,0.0,WeatherDisplay:10.37,2014-03-10 08:22:00,
2014-03-10 01:27:00,55.7,42.9,30.10,West,277,0.0,0.0,62,0.00,CLR,,0.00,0.0,WeatherDisplay:10.37,2014-03-10 08:27:00,
2014-03-10 01:32:00,55.6,42.8,30.10,West,277,0.0,0.0,62,0.00,CLR,,0.00,0.0,WeatherDisplay:10.37,2014-03-10 08:32:00,
2014-03-10 01:37:00,55.6,42.8,30.10,West,277,0.0,0.0,62,0.00,CLR,,0.00,0.0,WeatherDisplay:10.37,2014-03-10 08:37:00,
2014-03-10 01:42:00,55.4,43.0,30.10,West,277,0.0,0.0,63,0.00,CLR,,0.00,0.0,WeatherDisplay:10.37,2014-03-10 08:42:00,
2014-03-10 01:47:00,55.3,42.9,30.10,West,277,0.0,0.0,63,0.00,CLR,,0.00,0.0,WeatherDisplay:10.37,2014-03-10 08:47:00,
2014-03-10 01:52:00,55.3,42.9,30.10,West,277,0.0,0.0,63,0.00,CLR,,0.00,0.0,WeatherDisplay:10.37,2014-03-10 08:52:00,
2014-03-10 01:57:00,55.1,43.1,30.10,West,277,0.0,0.0,64,0.00,CLR,,0.00,0.0,WeatherDisplay:10.37,2014-03-10 08:57:00,
2014-03-10 02:02:00,55.1,43.1,30.10,West,277,0.0,0.0,64,0.00,CLR,,0.00,0.0,WeatherDisplay:10.37,2014-03-10 09:02:00,
2014-03-10 02:07:00,55.1,43.5,30.10,West,277,0.0,0.0,65,0.00,CLR,,0.00,0.0,WeatherDisplay:10.37,2014-03-10 09:07:00,
2014-03-10 02:12:00,55.1,43.5,30.10,West,277,0.0,0.0,65,0.00,CLR,,0.00,0.0,WeatherDisplay:10.37,2014-03-10 09:12:00,
2014-03-10 02:17:00,55.0,43.4,30.10,West,277,0.0,0.0,65,0.00,CLR,,0.00,0.0,WeatherDisplay:10.37,2014-03-10 09:17:00,
2014-03-10 02:22:00,55.0,43.8,30.10,West,277,0.0,0.0,66,0.00,CLR,,0.00,0.0,WeatherDisplay:10.37,2014-03-10 09:22:00,
2014-03-10 02:27:00,55.0,43.8,30.09,West,277,0.0,0.0,66,0.00,CLR,,0.00,0.0,WeatherDisplay:10.37,2014-03-10 09:27:00,
2014-03-10 02:32:00,54.8,43.7,30.10,West,277,0.0,0.0,66,0.00,CLR,,0.00,0.0,WeatherDisplay:10.37,2014-03-10 09:32:00,
2014-03-10 02:37:00,54.8,43.7,30.09,West,277,0.0,0.0,66,0.00,CLR,,0.00,0.0,WeatherDisplay:10.37,2014-03-10 09:37:00,
2014-03-10 02:42:00,54.8,43.7,30.09,West,277,0.0,0.0,66,0.00,CLR,,0.00,0.0,WeatherDisplay:10.37,2014-03-10 09:42:00,
2014-03-10 02:47:00,54.8,43.7,30.09,West,277,0.0,0.0,66,0.00,CLR,,0.00,0.0,WeatherDisplay:10.37,2014-03-10 09:47:00,
2014-03-10 02:52:00,54.8,43.7,30.09,West,277,0.0,0.0,66,0.00,CLR,,0.00,0.0,WeatherDisplay:10.37,2014-03-10 09:52:00,
2014-03-10 02:57:00,54.8,43.7,30.09,West,277,0.0,0.0,66,0.00,CLR,,0.00,0.0,WeatherDisplay:10.37,2014-03-10 09:57:00,
2014-03-10 03:02:00,54.8,43.7,30.09,West,277,0.0,0.0,66,0.00,CLR,,0.00,0.0,WeatherDisplay:10.37,2014-03-10 10:02:00,
2014-03-10 03:07:00,54.8,43.7,30.09,West,277,0.0,0.0,66,0.00,CLR,,0.00,0.0,WeatherDisplay:10.37,2014-03-10 10:07:00,
2014-03-10 03:12:00,54.8,43.7,30.09,West,277,0.0,0.0,66,0.00,CLR,,0.00,0.0,WeatherDisplay:10.37,2014-03-10 10:12:00,
2014-03-10 03:17:00,54.8,44.0,30.09,West,277,0.0,0.0,67,0.00,CLR,,0.00,0.0,WeatherDisplay:10.37,2014-03-10 10:17:00,
2014-03-10 03:22:00,54.8,44.0,30.09,West,277,0.0,0.0,67,0.00,CLR,,0.00,0.0,WeatherDisplay:10.37,2014-03-10 10:22:00,
2014-03-10 03:27:00,54.8,43.7,30.08,West,277,0.0,0.0,66,0.00,CLR,,0.00,0.0,WeatherDisplay:10.37,2014-03-10 10:27:00,
2014-03-10 03:32:00,55.0,43.8,30.08,West,277,0.0,0.0,66,0.00,CLR,,0.00,0.0,WeatherDisplay:10.37,2014-03-10 10:32:00,
2014-03-10 03:37:00,55.0,44.2,30.09,West,277,0.1,1.2,67,0.00,CLR,,0.00,0.0,WeatherDisplay:10.37,2014-03-10 10:37:00,
2014-03-10 03:42:00,55.1,44.3,30.09,West,277,0.0,0.0,67,0.00,CLR,,0.00,0.0,WeatherDisplay:10.37,2014-03-10 10:42:00,
2014-03-10 03:47:00,55.1,44.3,30.10,West,277,0.0,0.0,67,0.00,CLR,,0.00,0.0,WeatherDisplay:10.37,2014-03-10 10:47:00,
2014-03-10 03:52:00,55.1,44.3,30.09,West,277,0.0,0.0,67,0.00,CLR,,0.00,0.0,WeatherDisplay:10.37,2014-03-10 10:52:00,
2014-03-10 03:57:00,55.1,44.3,30.09,West,274,0.0,0.0,67,0.00,CLR,,0.00,0.0,WeatherDisplay:10.37,2014-03-10 10:57:00,
2014-03-10 04:02:00,55.3,44.5,30.09,West,274,0.0,0.0,67,0.00,CLR,,0.00,0.0,WeatherDisplay:10.37,2014-03-10 11:02:00,
2014-03-10 04:07:00,55.3,44.5,30.09,West,274,0.0,0.0,67,0.00,CLR,,0.00,0.0,WeatherDisplay:10.37,2014-03-10 11:07:00,
2014-03-10 04:12:00,55.4,44.6,30.09,West,274,0.0,0.0,67,0.00,CLR,,0.00,0.0,WeatherDisplay:10.37,2014-03-10 11:12:00,
2014-03-10 04:17:00,55.4,44.6,30.09,West,274,0.0,0.0,67,0.00,CLR,,0.00,0.0,WeatherDisplay:10.37,2014-03-10 11:17:00,
2014-03-10 04:22:00,55.4,44.6,30.08,West,274,0.0,0.0,67,0.00,CLR,,0.00,0.0,WeatherDisplay:10.37,2014-03-10 11:22:00,
2014-03-10 04:27:00,55.6,44.8,30.09,West,274,0.0,0.0,67,0.00,CLR,,0.00,0.0,WeatherDisplay:10.37,2014-03-10 11:27:00,
2014-03-10 04:32:00,55.6,45.2,30.09,West,274,0.0,0.0,68,0.00,CLR,,0.00,0.0,WeatherDisplay:10.37,2014-03-10 11:32:00,
2014-03-10 04:37:00,55.7,45.7,30.09,West,274,0.0,2.3,69,0.00,CLR,,0.00,0.0,WeatherDisplay:10.37,2014-03-10 11:37:00,
2014-03-10 04:42:00,56.0,46.0,30.10,West,274,0.0,1.2,69,0.00,CLR,,0.00,0.0,WeatherDisplay:10.37,2014-03-10 11:42:00,
2014-03-10 04:47:00,56.2,46.2,30.10,West,274,0.0,1.2,69,0.00,CLR,,0.00,0.0,WeatherDisplay:10.37,2014-03-10 11:47:00,
2014-03-10 04:52:00,56.5,46.8,30.10,West,274,0.3,2.3,70,0.00,CLR,,0.00,0.0,WeatherDisplay:10.37,2014-03-10 11:52:00,
2014-03-10 04:57:00,56.6,47.3,30.10,West,274,0.0,0.0,71,0.00,CLR,,0.00,0.0,WeatherDisplay:10.37,2014-03-10 11:57:00,
2014-03-10 05:02:00,56.9,47.6,30.10,West,274,0.1,1.2,71,0.00,CLR,,0.00,0.0,WeatherDisplay:10.37,2014-03-10 12:02:00,
2014-03-10 05:07:00,57.0,48.1,30.10,West,274,0.0,0.0,72,0.00,CLR,,0.00,0.0,WeatherDisplay:10.37,2014-03-10 12:07:00,
2014-03-10 05:12:00,57.2,48.3,30.10,West,274,0.0,0.0,72,0.00,CLR,,0.00,0.0,WeatherDisplay:10.37,2014-03-10 12:12:00,
2014-03-10 05:17:00,57.2,48.6,30.10,West,274,0.0,0.0,73,0.00,OVC,,0.00,0.0,WeatherDisplay:10.37,2014-03-10 12:17:00,
2014-03-10 05:22:00,57.3,48.7,30.10,West,274,0.0,0.0,73,0.00,OVC,,0.00,0.0,WeatherDisplay:10.37,2014-03-10 12:22:00,
2014-03-10 05:27:00,57.3,48.7,30.10,West,274,0.0,0.0,73,0.00,OVC,,0.00,0.0,WeatherDisplay:10.37,2014-03-10 12:27:00,
2014-03-10 05:32:00,57.5,48.9,30.10,West,274,0.5,0.0,73,0.00,OVC,,0.00,0.0,WeatherDisplay:10.37,2014-03-10 12:32:00,
2014-03-10 05:37:00,57.5,48.9,30.10,West,274,0.0,0.0,73,0.00,OVC,,0.00,0.0,WeatherDisplay:10.37,2014-03-10 12:37:00,
2014-03-10 05:43:00,57.5,49.3,30.11,West,274,0.0,0.0,74,0.00,OVC,,0.00,0.0,WeatherDisplay:10.37,2014-03-10 12:43:00,
2014-03-10 05:48:00,57.5,49.3,30.11,West,274,0.0,0.0,74,0.00,OVC,,0.00,0.0,WeatherDisplay:10.37,2014-03-10 12:48:00,
2014-03-10 05:53:00,57.5,49.3,30.11,West,274,0.0,0.0,74,0.00,OVC,,0.00,0.0,WeatherDisplay:10.37,2014-03-10 12:53:00,
2014-03-10 05:58:00,57.5,49.3,30.12,West,274,0.0,0.0,74,0.00,OVC,,0.00,0.0,WeatherDisplay:10.37,2014-03-10 12:58:00,
2014-03-10 06:03:00,57.5,49.6,30.12,West,274,0.0,0.0,75,0.00,OVC,,0.00,0.0,WeatherDisplay:10.37,2014-03-10 13:03:00,
2014-03-10 06:08:00,57.6,49.7,30.13,West,274,0.0,0.0,75,0.00,OVC,,0.00,0.0,WeatherDisplay:10.37,2014-03-10 13:08:00,
2014-03-10 06:13:00,57.6,49.7,30.12,West,274,0.0,0.0,75,0.00,OVC,,0.00,0.0,WeatherDisplay:10.37,2014-03-10 13:13:00,
2014-03-10 06:18:00,57.6,49.7,30.13,West,274,0.0,0.0,75,0.00,OVC,,0.00,0.0,WeatherDisplay:10.37,2014-03-10 13:18:00,
2014-03-10 06:23:00,57.6,50.1,30.13,WNW,295,2.1,5.0,76,0.00,OVC,,0.00,0.0,WeatherDisplay:10.37,2014-03-10 13:23:00,
2014-03-10 06:28:00,58.1,51.3,30.14,WNW,289,4.4,8.1,78,0.00,OVC,,0.00,0.0,WeatherDisplay:10.37,2014-03-10 13:28:00,
2014-03-10 06:33:00,58.1,51.6,30.14,WNW,284,5.0,6.9,79,0.00,OVC,,0.00,0.0,WeatherDisplay:10.37,2014-03-10 13:33:00,
2014-03-10 06:38:00,58.0,51.9,30.15,NW,309,0.4,2.3,80,0.00,OVC,,0.00,0.0,WeatherDisplay:10.37,2014-03-10 13:38:00,
2014-03-10 06:43:00,57.8,52.3,30.15,NW,316,1.7,5.8,82,0.00,OVC,,0.00,0.0,WeatherDisplay:10.37,2014-03-10 13:43:00,
2014-03-10 06:48:00,57.5,52.4,30.15,NW,322,2.1,6.9,83,0.00,OVC,,0.00,0.0,WeatherDisplay:10.37,2014-03-10 13:48:00,
2014-03-10 06:53:00,57.2,52.1,30.15,NW,323,1.7,3.5,83,0.00,OVC,,0.00,0.0,WeatherDisplay:10.37,2014-03-10 13:53:00,
2014-03-10 06:58:00,56.9,52.1,30.16,NW,323,0.2,2.3,84,0.00,OVC,,0.00,0.0,WeatherDisplay:10.37,2014-03-10 13:58:00,
2014-03-10 07:03:00,56.7,52.2,30.16,NW,323,0.0,0.0,85,0.00,-RA,,0.00,0.0,WeatherDisplay:10.37,2014-03-10 14:03:00,
2014-03-10 07:08:00,56.6,52.1,30.16,NW,322,0.5,2.3,85,0.00,-RA,,0.00,0.0,WeatherDisplay:10.37,2014-03-10 14:08:00,
2014-03-10 07:13:00,56.5,52.4,30.16,NW,323,0.0,0.0,86,0.00,-RA,,0.00,0.0,WeatherDisplay:10.37,2014-03-10 14:13:00,
2014-03-10 07:18:00,56.5,52.4,30.16,West,275,0.6,3.5,86,0.00,-RA,,0.00,0.0,WeatherDisplay:10.37,2014-03-10 14:18:00,
2014-03-10 07:23:00,56.3,52.2,30.16,West,270,0.0,0.0,86,0.00,-RA,,0.00,0.0,WeatherDisplay:10.37,2014-03-10 14:23:00,
2014-03-10 07:28:00,56.2,52.1,30.16,West,270,0.0,0.0,86,0.00,-RA,,0.00,0.0,WeatherDisplay:10.37,2014-03-10 14:28:00,
2014-03-10 07:33:00,56.2,52.4,30.16,West,270,0.0,0.0,87,0.00,-RA,,0.00,0.0,WeatherDisplay:10.37,2014-03-10 14:33:00,
2014-03-10 07:38:00,56.0,52.2,30.17,West,270,0.0,0.0,87,0.00,-RA,,0.00,0.0,WeatherDisplay:10.37,2014-03-10 14:38:00,
2014-03-10 07:43:00,56.0,52.2,30.16,West,270,0.0,0.0,87,0.00,-RA,,0.00,5.0,WeatherDisplay:10.37,2014-03-10 14:43:00,
2014-03-10 07:48:00,55.9,52.1,30.17,West,270,0.0,0.0,87,0.00,-RA,,0.00,11.0,WeatherDisplay:10.37,2014-03-10 14:48:00,
2014-03-10 07:53:00,55.7,51.9,30.16,West,271,0.1,1.2,87,0.00,-RA,,0.00,11.0,WeatherDisplay:10.37,2014-03-10 14:53:00,
2014-03-10 07:58:00,55.6,51.8,30.16,West,271,0.0,0.0,87,0.00,-RA,,0.00,21.0,WeatherDisplay:10.37,2014-03-10 14:58:00,
2014-03-10 08:03:00,55.4,51.6,30.16,West,271,0.0,0.0,87,0.00,-RA,,0.00,28.0,WeatherDisplay:10.37,2014-03-10 15:03:00,
2014-03-10 08:08:00,55.3,51.8,30.17,West,271,0.0,0.0,88,0.00,-RA,,0.00,26.0,WeatherDisplay:10.37,2014-03-10 15:08:00,
2014-03-10 08:13:00,55.3,51.8,30.17,West,271,0.0,1.0,88,0.00,-RA,,0.00,25.0,WeatherDisplay:10.37,2014-03-10 15:13:00,
2014-03-10 08:18:00,55.3,51.8,30.18,West,271,0.0,1.2,88,0.00,BKN,,0.00,28.0,WeatherDisplay:10.37,2014-03-10 15:18:00,
2014-03-10 08:23:00,55.1,51.6,30.18,West,271,0.0,1.2,88,0.00,BKN,,0.00,32.0,WeatherDisplay:10.37,2014-03-10 15:23:00,
2014-03-10 08:28:00,55.1,51.6,30.18,WNW,282,0.0,1.2,88,0.00,BKN,,0.00,44.0,WeatherDisplay:10.37,2014-03-10 15:28:00,
2014-03-10 08:33:00,55.1,51.6,30.18,WNW,282,0.0,0.0,88,0.00,-RA,,0.00,79.0,WeatherDisplay:10.37,2014-03-10 15:33:00,
2014-03-10 08:38:00,55.3,51.8,30.18,WNW,282,0.0,0.0,88,0.00,-RA,,0.00,95.0,WeatherDisplay:10.37,2014-03-10 15:38:00,
2014-03-10 08:43:00,55.3,51.8,30.18,WNW,282,0.0,0.0,88,0.00,-RA,,0.00,111.0,WeatherDisplay:10.37,2014-03-10 15:43:00,
2014-03-10 08:48:00,55.3,51.8,30.19,WNW,282,0.0,0.0,88,0.00,-RA,,0.00,107.0,WeatherDisplay:10.37,2014-03-10 15:48:00,
2014-03-10 08:53:00,55.4,51.9,30.19,WNW,282,0.5,2.0,88,0.00,-RA,,0.00,100.0,WeatherDisplay:10.37,2014-03-10 15:53:00,
2014-03-10 08:58:00,55.4,51.9,30.19,WNW,282,0.1,1.2,88,0.00,-RA,,0.00,106.0,WeatherDisplay:10.37,2014-03-10 15:58:00,
2014-03-10 09:03:00,55.4,51.9,30.20,WNW,282,0.5,3.0,88,0.00,-RA,,0.00,113.0,WeatherDisplay:10.37,2014-03-10 16:03:00,
2014-03-10 09:08:00,55.4,51.6,30.20,WNW,287,0.8,2.3,87,0.00,-RA,,0.00,113.0,WeatherDisplay:10.37,2014-03-10 16:08:00,
2014-03-10 09:13:00,55.6,51.8,30.20,WNW,289,1.0,3.0,87,0.00,-RA,,0.00,123.0,WeatherDisplay:10.37,2014-03-10 16:13:00,
2014-03-10 09:18:00,55.7,51.9,30.20,NW,313,0.0,1.2,87,0.00,BKN,,0.00,128.0,WeatherDisplay:10.37,2014-03-10 16:18:00,
2014-03-10 09:23:00,55.9,52.1,30.21,NW,325,3.0,4.0,87,0.00,BKN,,0.00,113.0,WeatherDisplay:10.37,2014-03-10 16:23:00,
2014-03-10 09:28:00,56.0,52.2,30.21,NW,313,1.4,3.5,87,0.00,BKN,,0.00,162.0,WeatherDisplay:10.37,2014-03-10 16:28:00,
2014-03-10 09:33:00,56.3,52.2,30.21,NW,315,0.7,2.3,86,0.00,BKN,,0.00,190.0,WeatherDisplay:10.37,2014-03-10 16:33:00,
2014-03-10 09:38:00,56.3,52.2,30.21,NW,323,1.4,4.6,86,0.00,BKN,,0.00,206.0,WeatherDisplay:10.37,2014-03-10 16:38:00,
2014-03-10 09:43:00,56.0,51.6,30.22,NW,323,3.3,5.8,85,0.00,BKN,,0.00,260.0,WeatherDisplay:10.37,2014-03-10 16:43:00,
2014-03-10 09:48:00,56.0,51.2,30.21,NW,320,0.9,3.5,84,0.00,BKN,,0.00,271.0,WeatherDisplay:10.37,2014-03-10 16:48:00,
2014-03-10 09:53:00,56.2,51.1,30.21,WNW,287,1.4,4.6,83,0.00,BKN,,0.00,264.0,WeatherDisplay:10.37,2014-03-10 16:53:00,
2014-03-10 09:58:00,56.3,50.5,30.21,NNW,339,3.6,7.0,81,0.00,BKN,,0.00,243.0,WeatherDisplay:10.37,2014-03-10 16:58:00,
2014-03-10 10:03:00,56.5,50.4,30.21,NNW,332,4.0,6.9,80,0.00,BKN,,0.00,294.0,WeatherDisplay:10.37,2014-03-10 17:03:00,
2014-03-10 10:08:00,56.7,50.3,30.21,NW,319,0.9,3.5,79,0.00,BKN,,0.00,311.0,WeatherDisplay:10.37,2014-03-10 17:08:00,
2014-03-10 10:13:00,57.2,50.4,30.21,WNW,288,2.4,4.6,78,0.00,BKN,,0.00,494.0,WeatherDisplay:10.37,2014-03-10 17:13:00,
2014-03-10 10:18:00,57.6,50.1,30.22,WNW,289,4.3,6.9,76,0.00,BKN,,0.00,438.0,WeatherDisplay:10.37,2014-03-10 17:18:00,
2014-03-10 10:23:00,58.1,49.9,30.22,NW,320,5.6,8.1,74,0.00,BKN,,0.00,424.0,WeatherDisplay:10.37,2014-03-10 17:23:00,
2014-03-10 10:28:00,58.6,49.6,30.21,NW,326,2.6,4.6,72,0.00,BKN,,0.00,486.0,WeatherDisplay:10.37,2014-03-10 17:28:00,
2014-03-10 10:33:00,59.0,49.2,30.22,WNW,302,4.7,6.9,70,0.00,BKN,,0.00,565.0,WeatherDisplay:10.37,2014-03-10 17:33:00,
2014-03-10 10:38:00,59.3,49.1,30.22,NW,323,2.6,9.2,69,0.00,BKN,,0.00,565.0,WeatherDisplay:10.37,2014-03-10 17:38:00,
2014-03-10 10:43:00,59.3,48.3,30.22,NW,326,5.4,11.5,67,0.00,BKN,,0.00,246.0,WeatherDisplay:10.37,2014-03-10 17:43:00,
2014-03-10 10:48:00,59.3,47.9,30.22,North,359,6.3,8.1,66,0.00,BKN,,0.00,220.0,WeatherDisplay:10.37,2014-03-10 17:48:00,
2014-03-10 10:53:00,59.5,48.1,30.22,NNW,332,6.0,12.7,66,0.00,BKN,,0.00,637.0,WeatherDisplay:10.37,2014-03-10 17:53:00,
2014-03-10 10:58:00,59.8,48.4,30.22,NW,308,4.2,8.1,66,0.00,BKN,,0.00,556.0,WeatherDisplay:10.37,2014-03-10 17:58:00,
2014-03-10 11:03:00,60.2,48.4,30.23,NNW,330,6.0,9.0,65,0.00,BKN,,0.00,614.0,WeatherDisplay:10.37,2014-03-10 18:03:00,
2014-03-10 11:08:00,60.7,48.9,30.23,NNW,330,7.0,11.5,65,0.00,BKN,,0.00,709.0,WeatherDisplay:10.37,2014-03-10 18:08:00,
2014-03-10 11:13:00,60.9,48.6,30.23,NW,325,5.7,11.5,64,0.00,BKN,,0.00,741.0,WeatherDisplay:10.37,2014-03-10 18:13:00,
2014-03-10 11:18:00,60.9,48.6,30.23,NNW,337,4.0,6.9,64,0.00,BKN,,0.00,626.0,WeatherDisplay:10.37,2014-03-10 18:18:00,
2014-03-10 11:23:00,61.0,48.3,30.23,NW,316,3.6,11.5,63,0.00,BKN,,0.00,588.0,WeatherDisplay:10.37,2014-03-10 18:23:00,
2014-03-10 11:28:00,61.2,48.5,30.23,NNE,13,4.4,6.9,63,0.00,BKN,,0.00,635.0,WeatherDisplay:10.37,2014-03-10 18:28:00,
2014-03-10 11:33:00,61.3,48.6,30.22,NNW,343,5.0,8.1,63,0.00,BKN,,0.00,596.0,WeatherDisplay:10.37,2014-03-10 18:33:00,
2014-03-10 11:38:00,61.3,48.2,30.22,NW,315,3.4,6.9,62,0.00,BKN,,0.00,635.0,WeatherDisplay:10.37,2014-03-10 18:38:00,
2014-03-10 11:43:00,61.8,48.6,30.22,NW,323,4.4,7.0,62,0.00,BKN,,0.00,667.0,WeatherDisplay:10.37,2014-03-10 18:43:00,
2014-03-10 11:48:00,61.8,47.8,30.22,North,352,6.9,12.7,60,0.00,BKN,,0.00,644.0,WeatherDisplay:10.37,2014-03-10 18:48:00,
2014-03-10 11:53:00,61.6,47.1,30.22,North,1,5.3,11.5,59,0.00,BKN,,0.00,646.0,WeatherDisplay:10.37,2014-03-10 18:53:00,
2014-03-10 11:58:00,61.8,47.3,30.22,NNW,335,1.7,6.9,59,0.00,BKN,,0.00,640.0,WeatherDisplay:10.37,2014-03-10 18:58:00,
2014-03-10 12:04:00,62.1,47.1,30.22,NE,35,4.5,10.4,58,0.00,BKN,,0.00,663.0,WeatherDisplay:10.37,2014-03-10 19:04:00,
2014-03-10 12:09:00,62.4,47.4,30.22,North,10,7.1,12.0,58,0.00,BKN,,0.00,711.0,WeatherDisplay:10.37,2014-03-10 19:09:00,
2014-03-10 12:14:00,62.4,47.4,30.22,West,267,3.8,5.8,58,0.00,BKN,,0.00,720.0,WeatherDisplay:10.37,2014-03-10 19:14:00,
2014-03-10 12:19:00,62.6,46.7,30.22,NW,325,4.6,8.1,56,0.00,BKN,,0.00,519.0,WeatherDisplay:10.37,2014-03-10 19:19:00,
2014-03-10 12:24:00,62.6,46.7,30.22,NW,315,4.6,6.9,56,0.00,BKN,,0.00,593.0,WeatherDisplay:10.37,2014-03-10 19:24:00,
2014-03-10 12:29:00,62.7,47.7,30.22,NNW,344,2.0,3.5,58,0.00,BKN,,0.00,867.0,WeatherDisplay:10.37,2014-03-10 19:29:00,
2014-03-10 12:34:00,63.2,47.2,30.22,NNW,329,3.5,8.1,56,0.00,BKN,,0.00,744.0,WeatherDisplay:10.37,2014-03-10 19:34:00,
2014-03-10 12:39:00,63.9,48.4,30.21,West,278,0.0,2.3,57,0.00,BKN,,0.00,591.0,WeatherDisplay:10.37,2014-03-10 19:39:00,
2014-03-10 12:44:00,63.9,47.4,30.22,NW,319,5.0,8.1,55,0.00,BKN,,0.00,556.0,WeatherDisplay:10.37,2014-03-10 19:44:00,
2014-03-10 12:49:00,63.5,47.0,30.22,NNW,346,5.1,8.1,55,0.00,BKN,,0.00,454.0,WeatherDisplay:10.37,2014-03-10 19:49:00,
2014-03-10 12:54:00,63.2,46.8,30.22,NNW,329,2.2,5.8,55,0.00,BKN,,0.00,725.0,WeatherDisplay:10.37,2014-03-10 19:54:00,
2014-03-10 12:59:00,63.4,47.4,30.22,NW,326,3.7,5.8,56,0.00,BKN,,0.00,735.0,WeatherDisplay:10.37,2014-03-10 19:59:00,
2014-03-10 13:04:00,63.7,47.7,30.22,North,0,3.0,4.6,56,0.00,BKN,,0.00,570.0,WeatherDisplay:10.37,2014-03-10 20:04:00,
2014-03-10 13:09:00,63.9,47.9,30.21,NW,319,3.9,6.9,56,0.00,BKN,,0.00,667.0,WeatherDisplay:10.37,2014-03-10 20:09:00,
2014-03-10 13:14:00,64.0,48.0,30.21,NW,318,3.6,8.1,56,0.00,BKN,,0.00,732.0,WeatherDisplay:10.37,2014-03-10 20:14:00,
2014-03-10 13:19:00,64.2,48.2,30.20,North,352,3.8,6.9,56,0.00,BKN,,0.00,779.0,WeatherDisplay:10.37,2014-03-10 20:19:00,
2014-03-10 13:24:00,64.7,48.6,30.20,NNW,336,0.6,3.5,56,0.00,BKN,,0.00,783.0,WeatherDisplay:10.37,2014-03-10 20:24:00,
2014-03-10 13:29:00,65.5,48.9,30.20,NNE,14,0.7,3.0,55,0.00,BKN,,0.00,788.0,WeatherDisplay:10.37,2014-03-10 20:29:00,
2014-03-10 13:34:00,65.6,49.0,30.20,NNE,17,0.5,3.5,55,0.00,BKN,,0.00,776.0,WeatherDisplay:10.37,2014-03-10 20:34:00,
2014-03-10 13:39:00,65.6,47.5,30.20,NW,325,2.3,4.6,52,0.00,BKN,,0.00,769.0,WeatherDisplay:10.37,2014-03-10 20:39:00,
2014-03-10 13:44:00,66.3,48.7,30.19,NW,312,1.8,8.1,53,0.00,BKN,,0.00,774.0,WeatherDisplay:10.37,2014-03-10 20:44:00,
2014-03-10 13:49:00,67.1,49.4,30.19,WNW,299,0.4,2.3,53,0.00,BKN,,0.00,771.0,WeatherDisplay:10.37,2014-03-10 20:49:00,
2014-03-10 13:54:00,67.4,48.6,30.18,North,359,0.1,1.2,51,0.00,BKN,,0.00,762.0,WeatherDisplay:10.37,2014-03-10 20:54:00,
2014-03-10 13:59:00,67.9,48.6,30.18,North,350,4.7,8.1,50,0.00,BKN,,0.00,720.0,WeatherDisplay:10.37,2014-03-10 20:59:00,
2014-03-10 14:04:00,68.1,48.2,30.18,NW,316,4.9,6.9,49,0.00,BKN,,0.00,750.0,WeatherDisplay:10.37,2014-03-10 21:04:00,
2014-03-10 14:09:00,68.1,48.8,30.18,WNW,301,0.0,0.0,50,0.00,BKN,,0.00,758.0,WeatherDisplay:10.37,2014-03-10 21:09:00,
2014-03-10 14:14:00,68.6,48.7,30.18,North,350,0.8,4.6,49,0.00,BKN,,0.00,755.0,WeatherDisplay:10.37,2014-03-10 21:14:00,
2014-03-10 14:19:00,68.8,48.3,30.18,NW,320,0.3,3.5,48,0.00,SCT,,0.00,686.0,WeatherDisplay:10.37,2014-03-10 21:19:00,
2014-03-10 14:24:00,68.4,47.4,30.17,North,354,3.9,8.1,47,0.00,SCT,,0.00,755.0,WeatherDisplay:10.37,2014-03-10 21:24:00,
2014-03-10 14:29:00,67.9,48.0,30.17,NW,322,0.7,3.5,49,0.00,SCT,,0.00,699.0,WeatherDisplay:10.37,2014-03-10 21:29:00,
2014-03-10 14:34:00,67.6,47.8,30.17,NNW,330,3.7,6.9,49,0.00,SCT,,0.00,727.0,WeatherDisplay:10.37,2014-03-10 21:34:00,
2014-03-10 14:39:00,67.6,48.3,30.17,NNE,28,0.0,0.0,50,0.00,SCT,,0.00,713.0,WeatherDisplay:10.37,2014-03-10 21:39:00,
2014-03-10 14:44:00,68.4,47.4,30.16,West,270,2.1,5.8,47,0.00,SCT,,0.00,709.0,WeatherDisplay:10.37,2014-03-10 21:44:00,
2014-03-10 14:49:00,68.4,47.4,30.16,NNE,14,6.6,11.5,47,0.00,SCT,,0.00,702.0,WeatherDisplay:10.37,2014-03-10 21:49:00,
2014-03-10 14:54:00,68.3,47.3,30.16,NNW,332,1.9,7.0,47,0.00,SCT,,0.00,697.0,WeatherDisplay:10.37,2014-03-10 21:54:00,
2014-03-10 14:59:00,68.3,47.3,30.16,North,349,0.2,1.2,47,0.00,SCT,,0.00,676.0,WeatherDisplay:10.37,2014-03-10 21:59:00,
2014-03-10 15:04:00,68.4,46.8,30.16,NNW,333,5.5,8.1,46,0.00,SCT,,0.00,681.0,WeatherDisplay:10.37,2014-03-10 22:04:00,
2014-03-10 15:09:00,68.8,47.2,30.15,NNE,30,0.0,0.0,46,0.00,SCT,,0.00,662.0,WeatherDisplay:10.37,2014-03-10 22:09:00,
2014-03-10 15:14:00,68.9,46.1,30.15,NNE,20,2.1,8.1,44,0.00,SCT,,0.00,663.0,WeatherDisplay:10.37,2014-03-10 22:14:00,
2014-03-10 15:19:00,69.1,46.9,30.15,NW,323,2.3,3.5,45,0.00,SCT,,0.00,642.0,WeatherDisplay:10.37,2014-03-10 22:19:00,
2014-03-10 15:24:00,69.6,46.7,30.15,North,349,4.6,8.1,44,0.00,SCT,,0.00,644.0,WeatherDisplay:10.37,2014-03-10 22:24:00,
2014-03-10 15:29:00,69.8,46.9,30.15,NNE,14,2.4,5.0,44,0.00,SCT,,0.00,589.0,WeatherDisplay:10.37,2014-03-10 22:29:00,
2014-03-10 15:34:00,69.6,46.7,30.15,North,354,3.8,5.8,44,0.00,SCT,,0.00,626.0,WeatherDisplay:10.37,2014-03-10 22:34:00,
2014-03-10 15:39:00,69.4,47.1,30.15,NNW,337,3.2,6.9,45,0.00,SCT,,0.00,600.0,WeatherDisplay:10.37,2014-03-10 22:39:00,
2014-03-10 15:44:00,69.6,46.7,30.15,NNE,32,6.1,11.5,44,0.00,SCT,,0.00,600.0,WeatherDisplay:10.37,2014-03-10 22:44:00,
2014-03-10 15:49:00,69.3,46.4,30.15,NE,42,1.6,3.5,44,0.00,SCT,,0.00,563.0,WeatherDisplay:10.37,2014-03-10 22:49:00,
2014-03-10 15:54:00,69.4,47.1,30.15,NNW,344,1.7,5.8,45,0.00,SCT,,0.00,570.0,WeatherDisplay:10.37,2014-03-10 22:54:00,
2014-03-10 15:59:00,69.6,47.9,30.15,North,0,1.2,5.0,46,0.00,SCT,,0.00,549.0,WeatherDisplay:10.37,2014-03-10 22:59:00,
2014-03-10 16:04:00,69.8,48.1,30.14,NNE,25,0.4,2.0,46,0.00,SCT,,0.00,545.0,WeatherDisplay:10.37,2014-03-10 23:04:00,
2014-03-10 16:09:00,69.9,47.6,30.14,North,357,1.3,3.5,45,0.00,SCT,,0.00,442.0,WeatherDisplay:10.37,2014-03-10 23:09:00,
2014-03-10 16:14:00,70.3,47.9,30.13,WNW,296,0.1,1.2,45,0.00,SCT,,0.00,528.0,WeatherDisplay:10.37,2014-03-10 23:14:00,
2014-03-10 16:19:00,70.6,48.2,30.14,North,354,5.6,11.5,45,0.00,SCT,,0.00,503.0,WeatherDisplay:10.37,2014-03-10 23:19:00,
2014-03-10 16:24:00,70.3,47.3,30.14,NNE,17,1.7,6.9,44,0.00,SCT,,0.00,487.0,WeatherDisplay:10.37,2014-03-10 23:24:00,
2014-03-10 16:29:00,70.4,48.0,30.13,NW,319,1.1,3.5,45,0.00,SCT,,0.00,473.0,WeatherDisplay:10.37,2014-03-10 23:29:00,
2014-03-10 16:34:00,70.4,47.4,30.13,North,352,3.5,6.9,44,0.00,SCT,,0.00,461.0,WeatherDisplay:10.37,2014-03-10 23:34:00,
2014-03-10 16:39:00,70.3,47.9,30.13,NNW,340,2.9,6.9,45,0.00,SCT,,0.00,447.0,WeatherDisplay:10.37,2014-03-10 23:39:00,
2014-03-10 16:44:00,70.3,47.3,30.13,NNE,21,2.7,5.8,44,0.00,SCT,,0.00,428.0,WeatherDisplay:10.37,2014-03-10 23:44:00,
2014-03-10 16:49:00,69.9,47.6,30.13,North,353,2.9,5.8,45,0.00,SCT,,0.00,424.0,WeatherDisplay:10.37,2014-03-10 23:49:00,
2014-03-10 16:54:00,69.8,47.5,30.13,North,0,1.6,5.8,45,0.00,SCT,,0.00,396.0,WeatherDisplay:10.37,2014-03-10 23:54:00,
2014-03-10 16:59:00,69.6,47.3,30.13,NNW,328,2.3,3.5,45,0.00,SCT,,0.00,375.0,WeatherDisplay:10.37,2014-03-10 23:59:00,
2014-03-10 17:04:00,69.4,47.1,30.13,NW,319,2.9,5.8,45,0.00,SCT,,0.00,377.0,WeatherDisplay:10.37,2014-03-11 00:04:00,
2014-03-10 17:09:00,69.1,47.4,30.13,NNW,339,3.9,5.0,46,0.00,SCT,,0.00,355.0,WeatherDisplay:10.37,2014-03-11 00:09:00,
2014-03-10 17:14:00,68.9,47.3,30.13,NNE,30,3.5,8.1,46,0.00,SCT,,0.00,350.0,WeatherDisplay:10.37,2014-03-11 00:14:00,
2014-03-10 17:19:00,68.6,47.6,30.13,North,356,3.9,6.9,47,0.00,SCT,,0.00,276.0,WeatherDisplay:10.37,2014-03-11 00:19:00,
2014-03-10 17:24:00,68.6,47.6,30.13,NW,313,3.0,5.8,47,0.00,SCT,,0.00,320.0,WeatherDisplay:10.37,2014-03-11 00:24:00,
2014-03-10 17:29:00,68.8,47.7,30.13,NW,325,2.7,3.5,47,0.00,SCT,,0.00,287.0,WeatherDisplay:10.37,2014-03-11 00:29:00,
2014-03-10 17:34:00,68.6,47.6,30.13,NNW,335,0.8,3.5,47,0.00,SCT,,0.00,276.0,WeatherDisplay:10.37,2014-03-11 00:34:00,
2014-03-10 17:39:00,68.6,47.6,30.13,NNW,335,3.4,8.1,47,0.00,SCT,,0.00,264.0,WeatherDisplay:10.37,2014-03-11 00:39:00,
2014-03-10 17:44:00,68.6,47.6,30.13,NNW,333,2.0,3.5,47,0.00,SCT,,0.00,199.0,WeatherDisplay:10.37,2014-03-11 00:44:00,
2014-03-10 17:49:00,68.4,47.4,30.14,NNW,328,2.4,5.8,47,0.00,SCT,,0.00,225.0,WeatherDisplay:10.37,2014-03-11 00:49:00,
2014-03-10 17:54:00,68.3,47.3,30.14,NW,313,2.1,10.4,47,0.00,SCT,,0.00,146.0,WeatherDisplay:10.37,2014-03-11 00:54:00,
2014-03-10 17:59:00,67.9,47.5,30.14,NW,325,1.2,3.5,48,0.00,SCT,,0.00,151.0,WeatherDisplay:10.37,2014-03-11 00:59:00,
2014-03-10 18:04:00,67.8,47.4,30.14,NW,305,3.5,6.9,48,0.00,SCT,,0.00,155.0,WeatherDisplay:10.37,2014-03-11 01:04:00,
2014-03-10 18:09:00,67.3,46.9,30.14,West,280,3.3,8.1,48,0.00,SCT,,0.00,97.0,WeatherDisplay:10.37,2014-03-11 01:09:00,
2014-03-10 18:14:00,66.9,46.6,30.14,NW,320,3.0,4.6,48,0.00,SCT,,0.00,58.0,WeatherDisplay:10.37,2014-03-11 01:14:00,
2014-03-10 18:19:00,66.4,46.7,30.14,NW,325,2.9,6.9,49,0.00,SCT,,0.00,77.0,WeatherDisplay:10.37,2014-03-11 01:19:00,
2014-03-10 18:24:00,66.1,46.9,30.14,NW,320,0.0,0.0,50,0.00,SCT,,0.00,42.0,WeatherDisplay:10.37,2014-03-11 01:24:00,
2014-03-10 18:29:00,65.8,46.1,30.14,NW,312,4.7,10.4,49,0.00,SCT,,0.00,60.0,WeatherDisplay:10.37,2014-03-11 01:29:00,
2014-03-10 18:34:00,65.5,46.4,30.14,WNW,296,1.8,5.0,50,0.00,SCT,,0.00,30.0,WeatherDisplay:10.37,2014-03-11 01:34:00,
2014-03-10 18:39:00,65.2,46.6,30.14,NW,316,1.6,3.5,51,0.00,SCT,,0.00,26.0,WeatherDisplay:10.37,2014-03-11 01:39:00,
2014-03-10 18:44:00,64.8,46.2,30.14,NW,305,4.3,6.0,51,0.00,SCT,,0.00,25.0,WeatherDisplay:10.37,2014-03-11 01:44:00,
2014-03-10 18:49:00,64.5,46.5,30.14,NNW,336,0.2,4.6,52,0.00,SCT,,0.00,19.0,WeatherDisplay:10.37,2014-03-11 01:49:00,
2014-03-10 18:54:00,64.3,46.3,30.15,North,0,1.1,3.5,52,0.00,SCT,,0.00,14.0,WeatherDisplay:10.37,2014-03-11 01:54:00,
2014-03-10 18:59:00,64.0,46.0,30.15,NNW,342,0.0,0.0,52,0.00,SCT,,0.00,12.0,WeatherDisplay:10.37,2014-03-11 01:59:00,
2014-03-10 19:04:00,63.9,46.9,30.15,NNW,335,0.0,1.2,54,0.00,SCT,,0.00,9.0,WeatherDisplay:10.37,2014-03-11 02:04:00,
2014-03-10 19:09:00,63.5,47.0,30.15,NW,309,0.4,3.0,55,0.00,SCT,,0.00,7.0,WeatherDisplay:10.37,2014-03-11 02:09:00,
2014-03-10 19:14:00,63.2,47.2,30.15,NW,322,0.0,1.2,56,0.00,SCT,,0.00,0.0,WeatherDisplay:10.37,2014-03-11 02:14:00,
2014-03-10 19:19:00,62.7,46.8,30.15,NW,323,0.0,0.0,56,0.00,SCT,,0.00,0.0,WeatherDisplay:10.37,2014-03-11 02:19:00,
2014-03-10 19:24:00,62.4,46.5,30.16,NW,323,0.0,0.0,56,0.00,SCT,,0.00,0.0,WeatherDisplay:10.37,2014-03-11 02:24:00,
2014-03-10 19:29:00,62.0,46.1,30.16,NNW,328,0.9,4.6,56,0.00,SCT,,0.00,0.0,WeatherDisplay:10.37,2014-03-11 02:29:00,
2014-03-10 19:34:00,61.6,46.2,30.16,NW,325,0.4,3.0,57,0.00,SCT,,0.00,0.0,WeatherDisplay:10.37,2014-03-11 02:34:00,
2014-03-10 19:39:00,61.3,45.9,30.16,NW,325,1.2,2.0,57,0.00,SCT,,0.00,0.0,WeatherDisplay:10.37,2014-03-11 02:39:00,
2014-03-10 19:44:00,61.0,45.7,30.16,NW,325,0.1,1.0,57,0.00,SCT,,0.00,0.0,WeatherDisplay:10.37,2014-03-11 02:44:00,
2014-03-10 19:49:00,60.7,45.4,30.17,NW,323,0.0,0.0,57,0.00,SCT,,0.00,0.0,WeatherDisplay:10.37,2014-03-11 02:49:00,
2014-03-10 19:54:00,60.5,45.6,30.17,NW,323,0.0,0.0,58,0.00,SCT,,0.00,0.0,WeatherDisplay:10.37,2014-03-11 02:54:00,
2014-03-10 19:59:00,60.2,45.4,30.17,NW,319,0.0,0.0,58,0.00,SCT,,0.00,0.0,WeatherDisplay:10.37,2014-03-11 02:59:00,
2014-03-10 20:04:00,60.1,45.3,30.17,NW,320,0.0,0.0,58,0.00,SCT,,0.00,0.0,WeatherDisplay:10.37,2014-03-11 03:04:00,
2014-03-10 20:09:00,59.8,45.4,30.17,NW,320,0.0,0.0,59,0.00,SCT,,0.00,0.0,WeatherDisplay:10.37,2014-03-11 03:09:00,
2014-03-10 20:14:00,59.5,45.2,30.17,NW,320,0.7,2.3,59,0.00,SCT,,0.00,0.0,WeatherDisplay:10.37,2014-03-11 03:14:00,
2014-03-10 20:19:00,59.3,45.0,30.17,NW,320,0.1,1.2,59,0.00,CLR,,0.00,0.0,WeatherDisplay:10.37,2014-03-11 03:19:00,
2014-03-10 20:24:00,59.2,45.3,30.18,NW,320,0.0,0.0,60,0.00,CLR,,0.00,0.0,WeatherDisplay:10.37,2014-03-11 03:24:00,
2014-03-10 20:29:00,58.9,45.0,30.18,NW,320,0.0,0.0,60,0.00,CLR,,0.00,0.0,WeatherDisplay:10.37,2014-03-11 03:29:00,
2014-03-10 20:34:00,58.7,44.8,30.18,NW,320,0.0,0.0,60,0.00,CLR,,0.00,0.0,WeatherDisplay:10.37,2014-03-11 03:34:00,
2014-03-10 20:39:00,58.6,45.2,30.18,NW,320,0.0,0.0,61,0.00,CLR,,0.00,0.0,WeatherDisplay:10.37,2014-03-11 03:39:00,
2014-03-10 20:44:00,58.4,45.0,30.18,NW,320,0.0,0.0,61,0.00,CLR,,0.00,0.0,WeatherDisplay:10.37,2014-03-11 03:44:00,
2014-03-10 20:49:00,58.3,44.9,30.18,NW,320,0.0,0.0,61,0.00,CLR,,0.00,0.0,WeatherDisplay:10.37,2014-03-11 03:49:00,
2014-03-10 20:54:00,58.1,45.1,30.18,NW,318,0.0,0.0,62,0.00,CLR,,0.00,0.0,WeatherDisplay:10.37,2014-03-11 03:54:00,
2014-03-10 20:59:00,57.8,44.9,30.18,NW,320,0.0,0.0,62,0.00,CLR,,0.00,0.0,WeatherDisplay:10.37,2014-03-11 03:59:00,
2014-03-10 21:01:00,57.6,45.1,30.18,NW,320,0.0,0.0,63,0.00,CLR,,0.00,0.0,WeatherDisplay:10.37,2014-03-11 04:01:00,
2014-03-10 21:06:00,57.5,45.0,30.18,NW,320,0.0,0.0,63,0.00,CLR,,0.00,0.0,WeatherDisplay:10.37,2014-03-11 04:06:00,
2014-03-10 21:11:00,57.2,45.1,30.18,NW,320,0.0,0.0,64,0.00,CLR,,0.00,0.0,WeatherDisplay:10.37,2014-03-11 04:11:00,
2014-03-10 21:16:00,56.9,44.8,30.18,NW,320,0.0,0.0,64,0.00,CLR,,0.00,0.0,WeatherDisplay:10.37,2014-03-11 04:16:00,
2014-03-10 21:21:00,56.6,45.0,30.19,NW,320,0.0,0.0,65,0.00,CLR,,0.00,0.0,WeatherDisplay:10.37,2014-03-11 04:21:00,
2014-03-10 21:26:00,56.3,45.1,30.19,NW,320,0.0,0.0,66,0.00,CLR,,0.00,0.0,WeatherDisplay:10.37,2014-03-11 04:26:00,
2014-03-10 21:31:00,56.0,44.8,30.19,NW,320,0.0,0.0,66,0.00,CLR,,0.00,0.0,WeatherDisplay:10.37,2014-03-11 04:31:00,
2014-03-10 21:36:00,55.9,45.1,30.19,NW,320,0.0,0.0,67,0.00,CLR,,0.00,0.0,WeatherDisplay:10.37,2014-03-11 04:36:00,
2014-03-10 21:41:00,55.6,45.2,30.19,NW,320,0.0,0.0,68,0.00,CLR,,0.00,0.0,WeatherDisplay:10.37,2014-03-11 04:41:00,
2014-03-10 21:46:00,55.3,44.9,30.19,NW,320,0.0,0.0,68,0.00,CLR,,0.00,0.0,WeatherDisplay:10.37,2014-03-11 04:46:00,
2014-03-10 21:51:00,55.1,45.1,30.19,NW,320,0.0,1.2,69,0.00,CLR,,0.00,0.0,WeatherDisplay:10.37,2014-03-11 04:51:00,
2014-03-10 21:56:00,54.8,44.8,30.19,NW,320,0.0,0.0,69,0.00,CLR,,0.00,0.0,WeatherDisplay:10.37,2014-03-11 04:56:00,
2014-03-10 22:01:00,54.7,45.1,30.19,NW,319,0.1,2.3,70,0.00,CLR,,0.00,0.0,WeatherDisplay:10.37,2014-03-11 05:01:00,
2014-03-10 22:07:00,54.5,44.9,30.19,NW,319,0.0,0.0,70,0.00,CLR,,0.00,0.0,WeatherDisplay:10.37,2014-03-11 05:07:00,
2014-03-10 22:12:00,54.4,45.2,30.19,NW,319,0.0,0.0,71,0.00,CLR,,0.00,0.0,WeatherDisplay:10.37,2014-03-11 05:12:00,
2014-03-10 22:17:00,54.1,44.9,30.19,NW,319,0.0,0.0,71,0.00,CLR,,0.00,0.0,WeatherDisplay:10.37,2014-03-11 05:17:00,
2014-03-10 22:22:00,53.9,44.7,30.19,NW,319,0.0,0.0,71,0.00,CLR,,0.00,0.0,WeatherDisplay:10.37,2014-03-11 05:22:00,
2014-03-10 22:27:00,53.8,45.0,30.20,NW,319,0.0,0.0,72,0.00,CLR,,0.00,0.0,WeatherDisplay:10.37,2014-03-11 05:27:00,
2014-03-10 22:32:00,53.6,44.8,30.20,NW,319,0.0,0.0,72,0.00,CLR,,0.00,0.0,WeatherDisplay:10.37,2014-03-11 05:32:00,
2014-03-10 22:37:00,53.5,45.1,30.20,NW,319,0.0,0.0,73,0.00,CLR,,0.00,0.0,WeatherDisplay:10.37,2014-03-11 05:37:00,
2014-03-10 22:42:00,53.3,44.9,30.20,NW,319,0.0,0.0,73,0.00,CLR,,0.00,0.0,WeatherDisplay:10.37,2014-03-11 05:42:00,
2014-03-10 22:47:00,53.1,45.0,30.20,NW,319,0.0,0.0,74,0.00,CLR,,0.00,0.0,WeatherDisplay:10.37,2014-03-11 05:47:00,
2014-03-10 22:52:00,52.9,44.8,30.20,NW,319,1.4,2.3,74,0.00,CLR,,0.00,0.0,WeatherDisplay:10.37,2014-03-11 05:52:00,
2014-03-10 22:57:00,52.8,44.7,30.20,NW,319,0.0,0.0,74,0.00,CLR,,0.00,0.0,WeatherDisplay:10.37,2014-03-11 05:57:00,
2014-03-10 23:02:00,52.6,44.9,30.20,NW,319,0.0,0.0,75,0.00,CLR,,0.00,0.0,WeatherDisplay:10.37,2014-03-11 06:02:00,
2014-03-10 23:07:00,52.3,44.6,30.20,NW,319,0.0,0.0,75,0.00,CLR,,0.00,0.0,WeatherDisplay:10.37,2014-03-11 06:07:00,
2014-03-10 23:12:00,52.2,44.5,30.20,NW,319,0.0,0.0,75,0.00,CLR,,0.00,0.0,WeatherDisplay:10.37,2014-03-11 06:12:00,
2014-03-10 23:17:00,52.0,44.7,30.19,NW,319,0.0,0.0,76,0.00,CLR,,0.00,0.0,WeatherDisplay:10.37,2014-03-11 06:17:00,
2014-03-10 23:22:00,51.9,44.6,30.19,NW,319,0.0,0.0,76,0.00,CLR,,0.00,0.0,WeatherDisplay:10.37,2014-03-11 06:22:00,
2014-03-10 23:27:00,51.6,44.3,30.19,NW,319,0.0,0.0,76,0.00,CLR,,0.00,0.0,WeatherDisplay:10.37,2014-03-11 06:27:00,
2014-03-10 23:32:00,51.4,44.1,30.20,NW,319,0.0,0.0,76,0.00,CLR,,0.00,0.0,WeatherDisplay:10.37,2014-03-11 06:32:00,
2014-03-10 23:37:00,51.3,44.3,30.20,NW,319,0.0,0.0,77,0.00,CLR,,0.00,0.0,WeatherDisplay:10.37,2014-03-11 06:37:00,
2014-03-10 23:42:00,51.1,44.1,30.20,NW,319,0.0,0.0,77,0.00,CLR,,0.00,0.0,WeatherDisplay:10.37,2014-03-11 06:42:00,
2014-03-10 23:47:00,51.0,44.0,30.20,NW,319,0.0,0.0,77,0.00,CLR,,0.00,0.0,WeatherDisplay:10.37,2014-03-11 06:47:00,
2014-03-10 23:52:00,50.8,44.2,30.20,NW,319,0.0,0.0,78,0.00,CLR,,0.00,0.0,WeatherDisplay:10.37,2014-03-11 06:52:00,
2014-03-10 23:57:00,50.7,44.1,30.20,NW,319,0.0,0.0,78,0.00,CLR,,0.00,0.0,WeatherDisplay:10.37,2014-03-11 06:57:00,